Starlink 31717

operational
NORAD ID: 59385 Int'l Des: 2024-062 Owner: SPXS Country: US Constellation: starlink
LEOCIRCULAR

Starlink 31717について

説明を読み込み中...

リアルタイム位置

3D地球を読み込み中...

次回通過

高度履歴

Altitude vs Time

uPlot chart will show altitude changes over time

軌道要素

1 59385U 24062M 25351.22926955 -.00001321 00000-0 -32482-4 0 9992
2 59385 53.1619 278.8749 0001359 83.9129 276.2026 15.30188448 97038
Epoch: Dec 17, 2025 • Age: 14 hours

現在のステータス

高度 480.6 km
速度 7.63 km/s
衛星直下点 52.08°N, 37°W
打ち上げ日 Apr 2, 2024
運用期間 1.7 years
タイプ internet

技術仕様

分類 Payload
質量 730.00 kg
乾燥質量 700.00 kg
総質量 730.00 kg
長さ 0.30 m
直径 4.10 m
スパン 29.00 m
形状 Box + pan
製造者 SPXS
バスタイプ Starlink V2M
フェーズステータス In Orbit
所有者/国 SPXS/US

大規模コンステレーション

Loading constellations...